Wind_Speed
3 2 4 4 5 5 5 5 5 5 6 6 7 7 7 7 8 8 8 8 8 8 7 6 5 5 4 4 4 3 3 4 3 3 3 3 2 2 2 2 2 2 1
4 3 4 4 5 5 5 5 5 5 7 7 7 6 6 7 7 8 8 8 8 7 7 6 5 5 4 4 3 3 3 3 3 3 3 3 2 2 2 3 2 2 2
5 4 4 4 5 5 5 5 5 5 7 7 7 7 7 7 7 7 8 7 7 7 7 7 6 5 4 4 4 3 3 3 3 3 3 3 2 2 2 3 2 2 2
6 5 5 4 4 4 4 5 5 5 6 7 7 7 7 7 6 6 7 7 7 8 8 7 6 5 5 4 4 3 3 4 4 3 3 3 2 3 2 2 2 2 2
5 5 4 3 3 4 4 5 5 5 5 7 7 7 7 7 6 6 7 8 8 8 8 7 7 6 5 4 4 4 4 4 4 4 3 3 3 2 2 2 1 1 1
5 5 4 3 2 3 3 4 4 5 6 6 6 6 6 6 6 6 7 9 8 8 8 8 7 6 5 4 4 5 5 5 5 4 3 3 3 2 2 2 1 2 1
5 5 4 3 2 2 3 3 4 4 5 6 6 6 6 7 7 7 8 9 9 8 8 8 8 7 5 5 5 5 5 5 5 4 4 3 2 2 3 3 2 2 3
5 5 4 3 2 2 2 3 3 3 4 4 5 6 6 7 7 8 8 9 9 9 8 8 7 6 6 6 6 5 5 5 5 5 4 4 4 4 4 4 4 4 4
5 5 5 4 3 1 1 2 3 3 3 4 5 6 6 6 7 7 8 8 9 9 9 9 8 7 7 7 7 5 5 6 6 6 5 5 5 5 5 5 5 5 5
6 6 5 5 3 2 1 1 2 3 3 3 4 5 6 6 7 7 8 8 9 9 9 9 9 8 8 8 7 6 6 6 6 5 6 5 5 5 6 6 6 6 6
6 6 6 5 3 2 1 0 2 3 3 3 4 5 5 6 6 7 8 8 8 8 9 9 10 9 9 8 7 7 7 6 6 6 6 6 5 5 5 6 6 6 7
7 6 6 5 3 3 2 1 1 2 2 3 3 4 4 5 6 7 7 8 8 9 9 9 9 9 9 9 8 7 7 7 6 6 6 6 6 6 6 6 7 7 7
6 6 6 5 4 3 2 1 1 1 1 2 3 3 3 4 5 6 7 8 8 8 8 9 9 9 9 8 8 7 7 7 7 7 7 7 7 7 7 7 7 7 6
6 6 6 6 5 4 3 2 1 1 1 1 2 3 3 3 4 5 5 6 7 8 8 10 9 9 8 8 8 8 8 7 7 8 7 7 8 8 8 8 8 8 7
6 6 6 6 5 5 4 3 2 1 0 1 1 2 3 3 3 4 5 6 7 7 8 9 9 9 9 8 8 9 9 8 8 8 8 8 8 8 8 8 8 8 8
7 6 7 6 4 4 4 3 3 2 1 1 0 1 2 3 3 4 4 6 6 7 8 9 9 9 9 9 9 9 9 9 9 9 9 9 9 8 8 8 8 8 9
7 7 7 6 4 3 4 3 3 2 1 1 0 0 1 2 3 3 5 6 6 7 7 7 8 9 9 10 10 10 10 9 9 10 9 9 9 9 9 9 8 9 9
8 8 8 6 4 3 3 3 3 2 1 1 1 1 1 2 3 4 4 5 6 7 6 6 8 9 10 10 10 10 10 10 10 10 10 10 10 10 10 10 10 9 10
8 8 7 6 5 4 3 2 3 2 2 1 1 2 1 2 2 3 5 5 6 6 7 7 8 8 10 10 10 10 10 10 10 9 9 10 10 11 11 11 10 10 10
9 8 7 6 5 4 4 3 3 2 2 2 2 2 2 1 2 2 4 4 5 6 7 7 7 7 8 9 9 10 10 10 10 10 10 10 10 11 11 11 11 10 11
9 9 7 6 5 4 4 4 3 2 2 2 2 2 2 1 1 2 2 3 4 5 6 7 7 7 8 8 9 9 10 10 10 10 10 10 11 11 11 12 12 11 11
9 9 8 7 6 5 5 4 3 3 3 3 3 3 2 2 2 2 3 3 4 5 6 6 7 7 8 8 9 9 10 10 11 12 12 11 11 11 11 12 12 11 11
9 9 9 8 7 7 5 4 4 4 3 3 4 4 3 3 4 4 4 5 5 5 6 6 6 7 8 9 9 10 10 10 11 11 11 11 11 11 12 12 11 11 11
10 9 9 8 8 8 6 6 5 5 4 4 4 5 4 4 5 5 6 6 5 5 6 7 7 8 8 8 9 10 10 11 11 10 10 10 11 12 12 12 12 12 12
9 10 9 8 8 8 7 6 6 6 5 5 5 6 6 6 6 7 7 7 7 7 7 7 8 8 9 9 10 11 11 11 12 12 11 12 13 13 13 13 14 14 14
10 9 9 8 8 8 7 7 7 6 6 6 6 7 8 7 7 7 8 8 8 8 8 8 8 9 10 10 11 11 12 12 12 13 14 14 14 15 15 15 15 15 16
Wind_Direction
74 107 133 150 151 154 160 158 155 156 150 143 144 154 161 167 169 169 168 170 168 165 166 165 164 169 162 159 148 147 160 165 154 154 178 167 156 163 171 174 161 142 126
76 99 137 147 157 162 165 167 160 153 155 148 150 156 163 169 175 176 171 168 170 170 167 166 165 167 159 151 155 150 151 153 154 159 156 161 171 162 161 162 146 151 149
85 102 119 134 152 168 175 175 169 160 164 161 161 158 159 169 175 179 178 173 174 175 171 169 171 164 164 163 163 168 169 162 154 159 158 164 160 156 149 158 153 157 154
84 96 111 134 152 160 170 175 173 169 167 169 170 169 169 171 176 179 179 179 181 182 186 179 175 171 168 171 175 175 169 164 161 160 159 160 159 152 140 134 151 150 143
83 90 97 119 153 166 170 175 178 179 178 177 174 173 175 178 180 181 184 184 182 181 188 192 185 175 173 171 176 177 171 174 174 172 169 165 154 153 156 156 169 188 187
78 91 91 96 139 172 177 176 184 182 183 180 186 185 177 178 185 186 189 186 183 183 186 184 186 187 183 181 178 180 186 193 188 188 194 190 182 182 188 190 192 216 241
69 77 74 76 91 158 183 186 184 190 192 191 197 198 191 185 184 186 188 190 188 188 184 187 192 192 184 180 177 182 191 202 201 202 207 213 213 222 222 225 223 234 244
67 68 61 57 75 124 168 188 192 196 197 202 207 204 199 200 201 196 198 199 197 194 193 196 192 191 189 189 185 188 195 203 208 214 216 221 226 233 236 238 239 247 251
58 56 50 43 50 79 153 189 198 209 212 216 221 216 208 215 216 211 207 208 206 201 196 197 200 202 203 204 197 197 202 207 215 219 220 228 234 239 241 242 245 252 254
45 48 42 38 42 53 79 187 207 209 216 217 223 222 216 214 216 214 211 212 211 204 200 201 205 210 211 208 206 210 212 211 209 216 220 229 236 236 238 241 251 252 255
37 38 32 29 33 42 46 36 217 217 223 223 228 227 213 209 209 212 215 214 212 208 203 205 210 213 213 213 215 217 217 214 217 224 224 229 236 238 236 241 248 257 259
24 22 18 22 20 20 18 3 236 223 227 227 232 230 210 201 206 210 215 214 216 209 205 208 212 214 214 218 222 224 221 220 227 227 225 234 240 242 239 244 250 254 255
15 16 10 15 22 22 15 352 336 259 229 239 238 230 215 211 212 209 214 215 213 207 208 208 209 213 216 221 226 226 223 225 230 231 231 231 237 243 245 248 251 249 257
15 15 13 18 21 26 25 13 2 318 254 245 229 221 215 218 220 212 210 211 208 207 210 212 212 219 222 225 227 229 228 231 238 238 234 235 240 245 249 254 259 257 261
14 14 9 16 25 27 29 27 23 12 290 219 218 218 209 204 202 206 207 203 207 212 211 213 214 220 225 233 232 232 234 235 241 244 244 244 245 248 250 257 262 255 258
20 18 12 12 18 27 30 24 15 15 43 63 211 223 218 214 213 210 213 211 212 212 212 215 215 223 230 236 236 238 239 238 242 248 250 249 251 253 256 255 260 259 258
18 15 13 14 20 26 31 29 26 24 28 32 10 275 251 236 230 232 230 221 216 217 218 223 225 229 234 239 241 241 241 242 246 247 248 249 251 253 257 257 259 263 265
14 12 10 11 16 21 25 22 19 18 13 9 337 319 274 251 242 238 235 231 226 225 227 230 233 237 240 241 244 242 242 242 243 247 249 249 250 253 257 258 263 268 270
10 9 7 6 11 22 25 16 12 5 2 358 351 331 305 272 253 244 241 248 241 241 240 245 246 245 246 245 243 240 242 242 244 247 250 251 252 251 256 261 264 269 270
6 7 9 10 11 18 22 16 13 6 12 19 359 333 310 288 264 264 261 262 249 249 249 253 252 250 249 247 243 241 242 243 244 248 250 252 252 251 257 263 264 271 272
4 6 11 8 8 14 11 359 355 355 358 7 1 338 327 313 292 282 275 271 264 259 256 257 257 251 250 247 243 240 242 245 246 250 251 253 253 254 261 268 269 274 274
2 2 2 0 6 4 357 355 353 346 340 344 344 331 333 325 316 312 301 288 278 272 267 265 260 251 250 249 245 242 245 251 253 253 253 252 255 259 265 268 271 274 272
355 354 356 356 356 351 348 347 343 332 322 315 317 320 326 318 311 309 308 296 289 286 280 272 259 255 252 250 247 246 249 254 257 258 257 254 255 261 267 270 271 273 274
345 343 343 346 349 347 347 342 334 330 325 312 311 309 303 301 306 302 299 293 289 282 277 270 264 260 256 251 248 250 254 257 261 262 261 258 258 262 265 268 270 272 277
334 335 333 334 336 339 341 339 332 331 326 314 311 310 301 292 297 295 290 288 284 277 278 278 269 264 259 257 255 254 257 260 260 260 260 262 263 264 265 268 270 273 275
323 326 325 327 327 326 326 329 323 319 319 319 314 308 300 294 292 293 288 285 285 279 276 274 273 270 265 264 261 262 265 264 262 262 263 264 265 267 267 268 271 273 275
Height
5889 5888 5888 5889 5889 5889 5889 5889 5889 5890 5890 5890 5890 5891 5891 5892 5893 5894 5895 5895 5896 5897 5897 5898 5898 5899 5899 5900 5900 5900 5901 5901 5901 5902 5902 5902 5902 5902 5903 5903 5903 5903 5903
5889 5888 5888 5889 5889 5889 5890 5889 5889 5890 5890 5890 5891 5891 5891 5892 5893 5893 5894 5895 5896 5897 5897 5898 5898 5899 5899 5899 5900 5900 5901 5901 5901 5902 5902 5902 5902 5903 5903 5903 5903 5903 5904
5890 5889 5889 5889 5889 5889 5889 5889 5889 5889 5889 5890 5891 5891 5891 5892 5893 5893 5894 5895 5895 5896 5897 5898 5898 5899 5899 5900 5900 5900 5901 5901 5902 5902 5902 5902 5903 5903 5903 5903 5904 5904 5904
5891 5890 5890 5890 5889 5889 5889 5889 5889 5889 5889 5890 5890 5891 5891 5892 5893 5893 5894 5894 5895 5895 5896 5897 5898 5899 5899 5900 5900 5901 5901 5902 5902 5902 5902 5903 5903 5903 5903 5904 5904 5904 5904
5891 5891 5891 5890 5890 5889 5889 5889 5889 5889 5889 5889 5890 5890 5890 5891 5892 5893 5893 5894 5895 5895 5896 5896 5898 5898 5899 5900 5900 5901 5901 5902 5902 5902 5903 5903 5903 5903 5904 5904 5904 5905 5905
5892 5892 5891 5891 5890 5890 5889 5889 5889 5889 5889 5889 5890 5890 5890 5890 5891 5892 5893 5893 5894 5895 5895 5896 5897 5898 5899 5899 5900 5900 5901 5902 5902 5902 5903 5903 5903 5904 5904 5904 5905 5905 5905
5893 5892 5891 5891 5890 5889 5889 5889 5889 5889 5889 5889 5889 5889 5890 5890 5890 5891 5892 5893 5894 5894 5895 5896 5897 5898 5899 5899 5900 5900 5901 5901 5902 5902 5902 5903 5903 5903 5904 5904 5904 5904 5904
5893 5893 5892 5891 5890 5890 5889 5889 5889 5889 5888 5888 5888 5889 5889 5889 5889 5890 5891 5892 5893 5893 5894 5896 5897 5898 5899 5899 5900 5900 5901 5901 5902 5902 5902 5903 5903 5903 5904 5904 5904 5904 5904
5894 5893 5892 5891 5890 5890 5889 5889 5889 5888 5888 5888 5888 5888 5888 5888 5888 5889 5889 5890 5891 5893 5894 5895 5896 5897 5898 5899 5900 5900 5900 5901 5901 5901 5902 5902 5903 5903 5903 5903 5903 5903 5903
5894 5893 5892 5891 5891 5890 5889 5889 5889 5888 5888 5887 5887 5887 5887 5887 5887 5887 5888 5889 5890 5891 5892 5894 5895 5896 5897 5898 5899 5900 5900 5900 5901 5901 5901 5902 5902 5902 5903 5903 5903 5902 5902
5895 5894 5893 5892 5891 5890 5889 5889 5888 5888 5887 5887 5886 5886 5886 5886 5886 5886 5887 5887 5889 5890 5891 5893 5894 5896 5896 5897 5898 5899 5899 5900 5900 5900 5901 5901 5902 5902 5902 5902 5902 5902 5902
5895 5894 5893 5892 5891 5890 5889 5888 5888 5887 5887 5886 5886 5885 5884 5884 5885 5885 5886 5886 5887 5888 5890 5891 5893 5894 5895 5896 5897 5898 5898 5899 5899 5900 5900 5900 5901 5901 5901 5901 5901 5901 5900
5895 5894 5893 5892 5891 5889 5889 5888 5887 5887 5886 5886 5885 5885 5884 5883 5884 5884 5885 5885 5886 5887 5889 5890 5892 5893 5895 5896 5896 5897 5898 5898 5898 5899 5899 5899 5900 5900 5900 5900 5900 5900 5899
5895 5894 5893 5892 5890 5889 5888 5887 5887 5886 5886 5886 5885 5885 5884 5883 5883 5883 5884 5884 5885 5886 5888 5889 5891 5893 5894 5895 5895 5896 5897 5897 5898 5898 5898 5899 5899 5899 5899 5899 5899 5899 5898
5895 5894 5893 5892 5890 5889 5888 5887 5887 5886 5886 5885 5885 5884 5884 5883 5883 5883 5883 5884 5885 5886 5887 5889 5890 5892 5893 5893 5894 5895 5896 5896 5897 5897 5897 5898 5898 5898 5898 5898 5897 5897 5897
5896 5895 5893 5892 5891 5889 5888 5887 5887 5886 5886 5885 5885 5884 5884 5884 5883 5883 5884 5884 5885 5886 5887 5888 5889 5890 5891 5892 5893 5894 5894 5895 5895 5896 5896 5896 5896 5896 5896 5896 5896 5896 5896
5897 5895 5894 5892 5891 5890 5888 5887 5887 5886 5886 5885 5885 5884 5884 5883 5883 5883 5883 5884 5884 5885 5886 5887 5888 5889 5890 5890 5891 5892 5893 5893 5894 5894 5894 5895 5895 5895 5895 5894 5894 5894 5894
5898 5896 5894 5892 5891 5890 5888 5887 5887 5886 5885 5885 5885 5884 5884 5883 5883 5883 5883 5883 5884 5884 5885 5886 5886 5887 5888 5888 5889 5890 5891 5892 5892 5893 5893 5893 5893 5893 5893 5893 5893 5893 5892
5898 5896 5895 5893 5891 5890 5889 5887 5887 5886 5886 5885 5885 5884 5884 5883 5883 5883 5883 5883 5883 5883 5884 5884 5885 5885 5886 5886 5887 5888 5889 5889 5890 5891 5891 5891 5890 5891 5891 5891 5890 5890 5890
5899 5897 5895 5893 5891 5890 5889 5888 5887 5886 5886 5885 5885 5884 5883 5883 5883 5882 5882 5882 5882 5882 5883 5883 5883 5883 5884 5884 5884 5886 5887 5887 5888 5888 5889 5888 5888 5888 5888 5888 5888 5888 5887
5899 5897 5895 5893 5892 5890 5889 5888 5887 5886 5886 5885 5885 5884 5883 5883 5882 5882 5882 5882 5882 5882 5881 5882 5882 5882 5882 5882 5883 5884 5884 5885 5886 5886 5886 5886 5886 5886 5886 5886 5886 5885 5885
5900 5898 5895 5894 5892 5891 5889 5888 5887 5886 5886 5885 5885 5884 5883 5883 5882 5882 5881 5881 5881 5881 5880 5880 5880 5880 5881 5881 5881 5882 5883 5884 5883 5884 5884 5884 5884 5884 5884 5884 5883 5883 5882
5900 5898 5896 5894 5892 5891 5889 5888 5887 5886 5885 5885 5884 5884 5883 5882 5882 5881 5881 5880 5880 5879 5879 5879 5879 5879 5879 5879 5880 5880 5881 5881 5881 5881 5881 5881 5881 5881 5881 5881 5881 5880 5880
5899 5897 5895 5894 5892 5891 5889 5888 5887 5886 5885 5884 5884 5883 5883 5882 5881 5881 5880 5880 5879 5878 5878 5877 5877 5877 5878 5878 5878 5878 5879 5879 5879 5879 5879 5878 5878 5878 5878 5878 5878 5877 5877
5899 5897 5895 5893 5892 5890 5889 5888 5887 5886 5884 5883 5883 5882 5882 5881 5880 5879 5879 5878 5877 5877 5876 5876 5876 5876 5876 5876 5876 5876 5876 5876 5876 5876 5876 5876 5876 5875 5875 5875 5874 5874 5874
5898 5896 5894 5892 5891 5890 5889 5888 5887 5885 5884 5883 5882 5881 5880 5880 5879 5878 5877 5876 5876 5875 5875 5874 5874 5874 5873 5873 5873 5873 5873 5873 5873 5873 5873 5873 5872 5872 5871 5871 5871 5871 5870